[[{"header":{"parameterUnit":"m.s-1","parameterCategory":1,"la1":30.2991,"la2":30.254,"lo1":-89.0895,"lo2":-89.0444,"dy":0.0017,"dx":0.0017,"nx":28,"ny":28,"refTime":"2024-05-11T21:00:00:Z","depth":0,"parameterNumber":2,"parameterNumberName":"U-component_of_WINDS"},"data":[0,0,0,0,0,0,0,0,0,0,0,0,0,0,0,0,0,0,0,0,0,0,0,0,0,0,0,0,0,0,0,0,0,0,0,0,0,0,0,0,0,0,0,0,0,0,0,0,0,0,0,0,0,0,0,0,0,0,-0.3136,-0.3136,0,-0.3198,-0.3198,-0.3199,-0.3232,-0.3233,-0.3233,-0.3233,-0.33,-0.3302,-0.3303,0,0,0,0,0,0,0,0,0,0,0,0,0,-0.3051,-0.3053,-0.3136,-0.3136,-0.3137,-0.3197,-0.3198,-0.3199,-0.3232,-0.3233,-0.3233,-0.3233,-0.3299,-0.3301,-0.3303,0,0,0,0,0,0,0,0,0,0,0,0,0,-0.3098,-0.3053,-0.3135,-0.3161,-0.3164,-0.3197,-0.3198,-0.3199,-0.3232,-0.3233,-0.3233,-0.3233,-0.3299,-0.3301,-0.3304,-0.3318,0,0,-0.3312,-0.3313,0,0,0,0,0,0,0,0,-0.3095,-0.3101,-0.3156,-0.3159,-0.3163,-0.3207,-0.3193,-0.3239,-0.3232,-0.3207,-0.3233,-0.3233,-0.3269,-0.3274,-0.3286,-0.3321,-0.3324,-0.3312,-0.3313,-0.3315,-0.3315,0,0,0,0,0,0,0,-0.3092,-0.3099,-0.316,-0.3157,-0.3161,-0.3171,-0.3178,-0.3202,-0.3237,-0.3209,-0.3211,-0.3218,-0.3271,-0.3283,-0.3288,-0.3325,-0.3312,-0.3314,-0.3316,-0.3317,-0.3376,-0.3376,0,0,0,0,0,0,-0.3084,-0.3096,-0.3158,-0.3162,-0.3128,-0.3172,-0.318,-0.3193,-0.3236,-0.3243,-0.3218,-0.3219,-0.3279,-0.3285,-0.329,-0.331,-0.3314,-0.3317,-0.3318,-0.3376,-0.3376,-0.3376,0,0,0,0,0,0,-0.3082,-0.3089,-0.3156,-0.313,-0.3139,-0.3174,-0.3188,-0.3194,-0.3206,-0.3243,-0.325,-0.3224,-0.3279,-0.3286,-0.3311,-0.3313,-0.3318,-0.332,-0.3376,-0.3376,-0.3376,-0.335,0,0,0,0,0,0,-0.3079,-0.3088,-0.3093,-0.3129,-0.314,-0.3174,-0.3188,-0.3195,-0.321,-0.3213,-0.325,-0.3257,-0.328,-0.3307,-0.3313,-0.3317,-0.3322,-0.3376,-0.3376,-0.3376,-0.3351,-0.3349,-0.3348,0,0,0,0,0,-0.3076,-0.3083,-0.3093,-0.31,-0.3146,-0.3174,-0.318,-0.3205,-0.321,-0.3216,-0.324,-0.3256,-0.3312,-0.3309,-0.3317,-0.3321,-0.3376,-0.3376,-0.3376,-0.3352,-0.335,-0.3348,0,0,0,0,0,0,-0.3047,-0.3089,-0.3099,-0.3118,-0.3142,-0.3179,-0.3187,-0.3202,-0.3226,-0.3227,-0.3258,-0.3267,-0.3288,-0.3307,-0.3303,-0.3338,-0.3346,-0.3347,-0.3324,-0.3323,-0.3321,-0.3316,-0.3325,0,0,0,0,0,-0.3043,-0.306,-0.3096,-0.3109,-0.3121,-0.3152,-0.3165,-0.3182,-0.3208,-0.3219,-0.3245,-0.3271,-0.3295,-0.331,-0.3334,-0.3354,-0.3364,-0.3361,-0.3359,-0.3358,-0.3359,-0.3373,-0.3373,-0.3377,-0.3377,-0.3377,0,0,-0.3034,-0.3059,-0.3068,-0.3104,-0.3125,-0.3144,-0.316,-0.3179,-0.3194,-0.3222,-0.3247,-0.3267,-0.3299,-0.3321,-0.3332,-0.3337,-0.336,-0.3358,-0.3357,-0.3359,-0.3373,-0.3373,-0.3372,-0.3377,-0.3377,-0.3377,0,0,-0.3028,-0.3048,-0.3061,-0.3082,-0.3112,-0.3133,-0.3136,-0.3172,-0.3186,-0.3211,-0.3232,-0.3252,-0.3292,-0.3314,-0.333,-0.3334,-0.335,-0.3341,-0.3333,-0.3346,-0.3346,-0.3346,-0.3348,-0.3348,-0.3342,-0.3342,-0.3342,0,-0.3013,-0.3042,-0.3067,-0.3085,-0.3101,-0.3127,-0.3142,-0.3161,-0.3198,-0.3209,-0.3214,-0.3266,-0.3289,-0.3318,-0.3318,-0.3331,-0.3337,-0.3337,-0.3343,-0.3344,-0.3344,-0.3347,-0.3347,-0.3341,-0.3341,-0.3341,-0.3341,0,-0.3023,-0.3042,-0.305,-0.3084,-0.3101,-0.3118,-0.3148,-0.3162,-0.3178,-0.3199,-0.3225,-0.3254,-0.3284,-0.3293,-0.3309,-0.3324,-0.3327,-0.3337,-0.3346,-0.3342,-0.3345,-0.3346,-0.3339,-0.3339,-0.334,-0.334,0,0,-0.2999,-0.3048,-0.3051,-0.3067,-0.3103,-0.312,-0.3139,-0.3167,-0.318,-0.3205,-0.3223,-0.3257,-0.3267,-0.3285,-0.3305,-0.3316,-0.3319,-0.3326,-0.3327,-0.3324,-0.3339,-0.3331,-0.3332,-0.333,-0.333,-0.333,-0.3337,0,-0.2999,-0.3032,-0.3056,-0.3081,-0.31,-0.3125,-0.3142,-0.3167,-0.3187,-0.3208,-0.3232,-0.3255,-0.3266,-0.3278,-0.329,-0.3316,-0.3322,-0.3316,-0.3348,-0.3349,-0.3339,-0.3334,-0.3325,-0.333,-0.3338,-0.3339,-0.3339,0,-0.3003,-0.3026,-0.3052,-0.3088,-0.3097,-0.3111,-0.314,-0.3159,-0.3189,-0.3203,-0.3224,-0.3244,-0.3267,-0.3274,-0.3307,-0.3302,-0.3317,-0.3332,-0.3333,-0.3337,-0.3343,-0.3338,-0.3332,-0.3333,-0.3341,-0.3341,-0.334,0,-0.2984,-0.3022,-0.3043,-0.3056,-0.3098,-0.3108,-0.3126,-0.3156,-0.3172,-0.3198,-0.321,-0.3238,-0.3255,-0.3277,-0.3305,-0.3308,-0.3336,-0.3345,-0.335,-0.3349,-0.3355,-0.3354,-0.3351,-0.3364,-0.3364,-0.3364,-0.3364,0,-0.2981,-0.2996,-0.3035,-0.3048,-0.3067,-0.3095,-0.3113,-0.3134,-0.316,-0.3179,-0.3203,-0.3221,-0.3256,-0.3279,-0.3301,-0.3326,-0.3333,-0.3346,-0.3352,-0.3344,-0.3343,-0.3355,-0.3355,-0.3364,-0.3364,-0.3364,-0.3364,0,-0.2963,-0.2989,-0.3014,-0.3051,-0.3061,-0.3073,-0.3106,-0.3121,-0.3143,-0.3166,-0.3174,-0.3209,-0.3237,-0.3267,-0.3305,-0.332,-0.3344,-0.3352,-0.3333,-0.3337,-0.334,-0.334,-0.3345,-0.3348,-0.3358,-0.3358,-0.3357,0,-0.2959,-0.2971,-0.301,-0.3024,-0.3041,-0.3063,-0.3079,-0.3109,-0.3126,-0.3161,-0.3172,-0.3201,-0.3226,-0.327,-0.33,-0.333,-0.3339,-0.3339,-0.3344,-0.3336,-0.334,-0.3339,-0.3341,-0.3337,-0.3337,-0.3337,-0.3337,0,-0.2951,-0.2963,-0.2986,-0.3013,-0.3032,-0.3055,-0.308,-0.309,-0.3125,-0.3143,-0.3171,-0.319,-0.3229,-0.3259,-0.3292,-0.3313,-0.3331,-0.3335,-0.3338,-0.333,-0.3319,-0.3326,-0.333,-0.3335,-0.3335,-0.3335,-0.3335,-0.3335,-0.294,-0.2953,-0.2982,-0.3007,-0.3028,-0.3051,-0.3066,-0.309,-0.3114,-0.3147,-0.3163,-0.3191,-0.3223,-0.327,-0.329,-0.3314,-0.332,-0.3324,-0.3325,-0.3326,-0.3324,-0.3315,-0.3321,-0.3321,-0.3321,-0.3321,-0.3321,0,-0.2934,-0.2954,-0.2976,-0.3009,-0.3029,-0.3043,-0.3072,-0.3088,-0.3112,-0.3139,-0.3163,-0.3196,-0.3225,-0.3258,-0.3289,-0.3302,-0.3312,-0.331,-0.3309,-0.3314,-0.3317,-0.3311,-0.3302,-0.3302,-0.3302,-0.3302,-0.3302,-0.3302,-0.2932,-0.2954,-0.2971,-0.3005,-0.3026,-0.3052,-0.3067,-0.3089,-0.3111,-0.3146,-0.317,-0.3191,-0.3221,-0.3255,-0.3283,-0.3292,-0.3303,-0.3299,-0.3311,-0.3312,-0.3314,-0.3315,-0.331,-0.3301,-0.3301,-0.3306,-0.3306,-0.3306]},{"header":{"parameterUnit":"m.s-1","parameterCategory":1,"la1":30.2991,"la2":30.254,"lo1":-89.0895,"lo2":-89.0444,"dy":0.0017,"dx":0.0017,"nx":28,"ny":28,"refTime":"2024-05-11T21:00:00:Z","depth":0,"parameterNumber":3,"parameterNumberName":"V-component_of_WINDS"},"data":[0,0,0,0,0,0,0,0,0,0,0,0,0,0,0,0,0,0,0,0,0,0,0,0,0,0,0,0,0,0,0,0,0,0,0,0,0,0,0,0,0,0,0,0,0,0,0,0,0,0,0,0,0,0,0,0,0,0,6.9246,6.9246,0,6.9298,6.9299,6.9299,6.9255,6.9253,6.9251,6.925,6.9297,6.9299,6.9302,0,0,0,0,0,0,0,0,0,0,0,0,0,6.91,6.9103,6.9246,6.9247,6.9247,6.9298,6.9299,6.9299,6.9255,6.9253,6.9251,6.9249,6.9296,6.9299,6.9303,0,0,0,0,0,0,0,0,0,0,0,0,0,6.9159,6.9104,6.9246,6.9232,6.9231,6.9298,6.9299,6.93,6.9256,6.9253,6.925,6.9248,6.9294,6.9299,6.9303,6.9385,0,0,6.9317,6.9319,0,0,0,0,0,0,0,0,6.9156,6.9164,6.9233,6.9233,6.9232,6.9267,6.9265,6.9328,6.9257,6.9246,6.925,6.9246,6.9289,6.9293,6.9309,6.9387,6.9389,6.9317,6.932,6.9322,6.9323,0,0,0,0,0,0,0,6.9152,6.9162,6.9266,6.9234,6.9233,6.922,6.9225,6.9276,6.9282,6.9247,6.9244,6.9251,6.9288,6.9305,6.931,6.939,6.9317,6.9321,6.9324,6.9325,6.9537,6.954,0,0,0,0,0,0,6.915,6.9159,6.9265,6.9268,6.9187,6.9225,6.9231,6.9259,6.9281,6.9282,6.9253,6.9249,6.9299,6.9305,6.9311,6.9408,6.9322,6.9326,6.9328,6.9534,6.9538,6.9541,0,0,0,0,0,0,6.9147,6.916,6.9263,6.9213,6.9225,6.923,6.9262,6.9261,6.9278,6.9286,6.9286,6.927,6.9297,6.9305,6.9367,6.9409,6.9328,6.9332,6.9531,6.9535,6.9539,6.9604,0,0,0,0,0,0,6.9143,6.9159,6.9192,6.9214,6.9228,6.932,6.9265,6.9264,6.9287,6.9281,6.9302,6.9303,6.9295,6.9361,6.9372,6.9414,6.9335,6.9527,6.9533,6.9538,6.9598,6.961,6.962,0,0,0,0,0,6.9138,6.9207,6.9194,6.9207,6.9269,6.9323,6.933,6.9322,6.929,6.9322,6.9327,6.9302,6.9403,6.9368,6.9379,6.9424,6.9524,6.9531,6.9537,6.9593,6.9608,6.962,0,0,0,0,0,0,6.9188,6.921,6.9196,6.9274,6.9297,6.9315,6.9355,6.9338,6.9369,6.9362,6.9348,6.9353,6.9419,6.9427,6.9388,6.9504,6.9458,6.9468,6.9496,6.951,6.9521,6.9518,6.9339,0,0,0,0,0,6.9208,6.9253,6.9268,6.9335,6.9348,6.935,6.9373,6.9365,6.9387,6.9396,6.9405,6.9426,6.9463,6.9487,6.9521,6.9599,6.9602,6.9635,6.9646,6.9655,6.9663,6.9705,6.9719,6.9563,6.9563,6.9563,0,0,6.925,6.9268,6.9296,6.9346,6.9363,6.9406,6.9358,6.9406,6.9438,6.9402,6.9463,6.947,6.9492,6.9563,6.9595,6.9572,6.9707,6.9664,6.9671,6.9674,6.9713,6.9728,6.9741,6.9567,6.9567,6.9566,0,0,6.9349,6.9367,6.9426,6.9444,6.9471,6.9472,6.9486,6.9507,6.9511,6.9572,6.9546,6.9582,6.9645,6.9662,6.9679,6.9784,6.9762,6.9795,6.9853,6.9894,6.9906,6.9917,6.9954,6.9968,6.9803,6.9803,6.9804,0,6.9397,6.9465,6.9457,6.9508,6.953,6.9502,6.9559,6.9576,6.9612,6.9627,6.9602,6.968,6.9693,6.9767,6.9793,6.9808,6.9822,6.9793,6.9905,6.9916,6.9926,6.9961,6.9975,6.9807,6.9807,6.9806,6.9806,0,6.9522,6.9569,6.9612,6.9651,6.9677,6.9731,6.9729,6.9756,6.9746,6.9749,6.981,6.9824,6.9861,6.9877,6.9866,6.995,6.9935,6.9908,6.9862,6.9945,6.9978,6.9991,6.9813,6.9812,6.981,6.9809,0,0,6.9654,6.9688,6.9704,6.9721,6.9749,6.9783,6.9835,6.9872,6.9896,6.9921,6.9963,7.0017,6.9992,7.0011,7.0002,7.0037,7.0119,7.0005,7.0006,7.0026,7.0211,7.0232,7.0248,7.0105,7.0107,7.0109,7.0209,0,6.9755,6.9848,6.9842,6.9928,6.997,6.9944,6.9988,7.0009,7.0012,7.0047,7.005,7.0089,7.0053,7.0064,7.0098,7.0102,7.0156,7.0095,7.0142,7.0144,7.0138,7.0265,7.0287,7.0381,7.0222,7.0224,7.0226,0,6.9884,6.9917,7.0008,7.0029,7.0047,7.0088,7.0121,7.0155,7.0177,7.0177,7.0199,7.0183,7.0233,7.0186,7.0253,7.0212,7.023,7.0235,7.0238,7.0243,7.019,7.0273,7.0411,7.0425,7.0246,7.0244,7.0243,0,6.9972,7.0038,7.0101,7.0116,7.0142,7.0171,7.0183,7.0203,7.0225,7.0254,7.0268,7.0302,7.032,7.0345,7.0338,7.0304,7.0407,7.0359,7.0407,7.0407,7.043,7.0429,7.0573,7.0442,7.0442,7.0441,7.0441,0,7.0085,7.0141,7.0141,7.0179,7.0241,7.0233,7.0294,7.0302,7.0319,7.0357,7.0335,7.0371,7.036,7.0394,7.0389,7.0445,7.0453,7.0454,7.0452,7.0456,7.0456,7.0468,7.0462,7.0445,7.0444,7.0444,7.0443,0,7.0193,7.0195,7.0262,7.0282,7.0288,7.0333,7.0349,7.0384,7.0386,7.0435,7.0445,7.0448,7.0487,7.0483,7.0527,7.0523,7.0593,7.0583,7.0587,7.0584,7.0633,7.0628,7.079,7.0811,7.0666,7.0667,7.0669,0,7.0265,7.0309,7.0334,7.0359,7.0373,7.0414,7.0438,7.043,7.0455,7.0483,7.0515,7.0553,7.0583,7.0648,7.0652,7.0685,7.0675,7.073,7.068,7.0683,7.0676,7.0674,7.0678,7.074,7.0741,7.0743,7.0744,0,7.0393,7.0392,7.0428,7.0465,7.0495,7.0523,7.0548,7.0569,7.0564,7.0593,7.0635,7.0658,7.0704,7.0741,7.0772,7.0782,7.0762,7.0759,7.0772,7.0777,7.0778,7.0778,7.0614,7.0756,7.0755,7.0754,7.0753,7.0753,7.0485,7.0523,7.0547,7.0588,7.0606,7.0631,7.0665,7.0672,7.0707,7.0745,7.0738,7.0784,7.0803,7.0844,7.0857,7.0891,7.0871,7.089,7.0895,7.09,7.0905,7.0772,7.0897,7.0897,7.0896,7.0896,7.0896,0,7.0612,7.0626,7.0664,7.0702,7.0734,7.0714,7.0741,7.0768,7.081,7.0831,7.0862,7.0909,7.0945,7.0952,7.0986,7.1013,7.1004,7.1022,7.102,7.1022,7.0921,7.0907,7.1028,7.1028,7.1028,7.1028,7.1028,7.1028,7.0682,7.0744,7.0746,7.0816,7.0829,7.0876,7.0893,7.0915,7.0932,7.0986,7.1017,7.1022,7.1037,7.1072,7.1104,7.1105,7.1118,7.114,7.1137,7.1043,7.103,7.1017,7.1003,7.1143,7.1143,7.1235,7.1236,7.1237]}]]